Notices

What's New in latest Release from April 7th, 2021:

- Updated Glossary, including Speed of Maximum Gust, and Total Hourly Precipitation

- Updated national and regional climate services offices contacts and prices information

- Addition of station inventory lists for 1981-2010, 1971-2000, and 1961-1990 Normals.

If you haven't already, please take our survey and provide feedback about our website: https://eccc.sondage-survey.ca/f/LanguageSelection.aspx?s=442ca660-fcf1-47c0-95a9-59707d6fd709

Hourly Data Report for April 27, 2019

MIRAMICHI RCS
NEW BRUNSWICK
Current Station Operator: ECCC - MSC

47°00'34.000" N
65°27'54.000" W
33.00 m
8100989
71744
ACQ

Download Data

Hourly Data (April 2019)
Hourly Data Report for April 27, 2019
TIME
LST
Temp Definition
°C
Dew Point Definition
°C
Rel Hum Definition
%
Precip. Amount Definition
mm

Wind Dir Definition
10's deg

Wind Spd Definition
km/h
Visibility Definition
km
Stn Press Definition
kPa
Hmdx Definition


Wind Chill Definition


Weather Definition


00:00 4.9 1.5 79 0.0 10 15   100.96     LegendNANA
01:00 4.4 1.5 82 0.0 11 16   100.92     LegendNANA
02:00 3.2 1.6 89 0.0 9 20   100.81     LegendNANA
03:00 3.0 1.9 92 0.2 10 15   100.76     LegendNANA
04:00 3.2 2.2 93 0.2 9 22   100.60     LegendNANA
05:00 3.3 2.2 92 0.0 10 21   100.52     LegendNANA
06:00 3.2 1.7 90 0.3 9 21   100.46     LegendNANA
07:00 3.1 1.9 92 0.3 9 25   100.39     LegendNANA
08:00 3.2 2.0 92 0.0 9 24   100.33     LegendNANA
09:00 3.3 2.4 94 0.0 9 23   100.23     LegendNANA
10:00 3.7 3.0 95 1.3 8 24   100.12     LegendNANA
11:00 4.8 4.2 96 0.0 8 21   100.04     LegendNANA
12:00 5.4 4.9 97 0.0 9 21   99.90     LegendNANA
13:00 5.6 5.1 97 0.0 9 23   99.75     LegendNANA
14:00 5.8 5.2 96 0.0 9 22   99.59     LegendNANA
15:00 6.7 6.1 96 0.0 10 19   99.51     LegendNANA
16:00 7.4 6.7 95 1.1 11 26   99.46     LegendNANA
17:00 7.4 6.6 95 0.0 11 25   99.42     LegendNANA
18:00 7.5 6.7 95 0.0 11 24   99.42     LegendNANA
19:00 7.0 6.3 95 0.0 12 20   99.45     LegendNANA
20:00 6.9 6.3 96 0.3 12 15   99.51     LegendNANA
21:00 6.9 6.3 96 0.2 16 14   99.57     LegendNANA
22:00 6.9 6.4 97 0.0 15 10   99.59     LegendNANA
23:00 5.7 4.5 93 0.0 18 14   99.62     LegendNANA

Notes on Data Quality.

Legend

  • E = Estimated
  • M = Missing
  • NA = Not Available*
  • [empty] = Indicates an unobserved value
Date modified: